Time,TemperatureF,DewpointF,PressureIn,WindDirection,WindDirectionDegrees,WindSpeedMPH,WindSpeedGustMPH,Humidity,HourlyPrecipIn,Conditions,Clouds,dailyrainin,SolarRadiationWatts/m^2,SoftwareType,DateUTC
2013-09-08 00:03:00,-999.0,-99.9,30.32,SE,136,1.0,2.0,-999,-99.99,,,-99.99,0.000000,,2013-09-08 04:03:00,
2013-09-08 00:14:00,61.0,60.0,30.32,SE,136,1.0,2.0,98,0.00,,,0.00,0.000000,,2013-09-08 04:14:00,
2013-09-08 00:43:00,61.0,60.0,30.32,SE,135,1.0,3.0,98,0.00,,,0.00,0.000000,,2013-09-08 04:43:00,
2013-09-08 00:54:00,61.0,60.0,30.32,SE,135,1.0,3.0,98,0.00,,,0.00,0.000000,,2013-09-08 04:54:00,
2013-09-08 01:03:00,61.0,60.0,30.32,SE,135,1.0,3.0,98,0.00,,,0.00,0.000000,,2013-09-08 05:03:00,
2013-09-08 01:13:00,61.0,60.0,30.32,SE,135,1.0,3.0,98,0.00,,,0.00,0.000000,,2013-09-08 05:13:00,
2013-09-08 01:43:00,60.0,59.0,30.32,SSE,155,1.0,2.0,98,0.00,,,0.00,0.000000,,2013-09-08 05:43:00,
2013-09-08 01:52:00,60.0,59.0,30.32,SSE,155,1.0,2.0,98,0.00,,,0.00,0.000000,,2013-09-08 05:52:00,
2013-09-08 02:03:00,60.0,59.0,30.32,SSE,155,1.0,2.0,98,0.00,,,0.00,0.000000,,2013-09-08 06:03:00,
2013-09-08 02:13:00,60.0,59.0,30.32,SSE,155,1.0,2.0,98,0.00,,,0.00,0.000000,,2013-09-08 06:13:00,
2013-09-08 02:42:00,59.0,58.0,30.32,SSE,152,1.0,2.0,98,0.00,,,0.00,0.000000,,2013-09-08 06:42:00,
2013-09-08 02:53:00,59.0,58.0,30.32,SSE,152,1.0,2.0,98,0.00,,,0.00,0.000000,,2013-09-08 06:53:00,
2013-09-08 03:02:00,59.0,58.0,30.32,SSE,152,1.0,2.0,98,0.00,,,0.00,0.000000,,2013-09-08 07:02:00,
2013-09-08 03:12:00,59.0,58.0,30.32,SSE,152,1.0,2.0,98,0.00,,,0.00,0.000000,,2013-09-08 07:12:00,
2013-09-08 04:42:00,58.0,58.0,30.31,SE,130,1.0,2.0,99,-99.99,,,0.00,0.000000,,2013-09-08 08:42:00,
2013-09-08 04:52:00,58.0,58.0,30.31,SE,130,1.0,2.0,99,-99.99,,,0.00,0.000000,,2013-09-08 08:52:00,
2013-09-08 05:02:00,58.0,58.0,30.31,SE,130,1.0,2.0,99,-99.99,,,0.00,0.000000,,2013-09-08 09:02:00,
2013-09-08 05:12:00,58.0,58.0,30.31,SE,130,1.0,2.0,99,-99.99,,,0.00,0.000000,,2013-09-08 09:12:00,
2013-09-08 05:43:00,58.0,58.0,30.31,North,10,2.0,4.0,99,0.00,,,0.00,0.000000,,2013-09-08 09:43:00,
2013-09-08 05:54:00,58.0,58.0,30.31,North,10,2.0,4.0,99,0.00,,,0.00,0.000000,,2013-09-08 09:54:00,
2013-09-08 06:03:00,58.0,58.0,30.31,North,10,2.0,4.0,99,0.00,,,0.00,0.000000,,2013-09-08 10:03:00,
2013-09-08 06:12:00,58.0,58.0,30.31,North,10,2.0,4.0,99,0.00,,,0.00,0.000000,,2013-09-08 10:12:00,
2013-09-08 06:43:00,56.0,56.0,30.32,ESE,105,1.0,4.0,99,0.00,,,0.00,0.000000,,2013-09-08 10:43:00,
2013-09-08 06:53:00,56.0,56.0,30.32,ESE,105,1.0,4.0,99,0.00,,,0.00,0.000000,,2013-09-08 10:53:00,
2013-09-08 07:02:00,56.0,56.0,30.32,ESE,105,1.0,4.0,99,0.00,,,0.00,0.000000,,2013-09-08 11:02:00,
2013-09-08 07:12:00,56.0,56.0,30.32,ESE,105,1.0,4.0,99,0.00,,,0.00,0.000000,,2013-09-08 11:12:00,
2013-09-08 07:42:00,58.0,58.0,30.32,East,97,1.0,3.0,99,0.00,,,0.00,0.000000,,2013-09-08 11:42:00,
2013-09-08 07:52:00,58.0,58.0,30.32,East,97,1.0,3.0,99,0.00,,,0.00,0.000000,,2013-09-08 11:52:00,
2013-09-08 08:02:00,58.0,58.0,30.32,East,97,1.0,3.0,99,0.00,,,0.00,0.000000,,2013-09-08 12:02:00,
2013-09-08 08:12:00,58.0,58.0,30.32,East,97,1.0,3.0,99,0.00,,,0.00,0.000000,,2013-09-08 12:12:00,
2013-09-08 08:42:00,59.0,59.0,30.31,ENE,70,1.0,2.0,99,0.00,,,0.00,25.000000,,2013-09-08 12:42:00,
2013-09-08 08:52:00,59.0,59.0,30.31,ENE,70,1.0,2.0,99,0.00,,,0.00,25.000000,,2013-09-08 12:52:00,
2013-09-08 09:02:00,59.0,59.0,30.31,ENE,70,1.0,2.0,99,0.00,,,0.00,25.000000,,2013-09-08 13:02:00,
2013-09-08 09:12:00,59.0,59.0,30.31,ENE,70,1.0,2.0,99,0.00,,,0.00,25.000000,,2013-09-08 13:12:00,
2013-09-08 09:42:00,70.0,70.0,30.29,NNW,335,0.0,2.0,99,0.00,,,0.00,221.000000,,2013-09-08 13:42:00,
2013-09-08 09:52:00,70.0,70.0,30.29,NNW,335,0.0,2.0,99,0.00,,,0.00,221.000000,,2013-09-08 13:52:00,
2013-09-08 10:02:00,70.0,70.0,30.29,NNW,335,0.0,2.0,99,0.00,,,0.00,221.000000,,2013-09-08 14:02:00,
2013-09-08 10:11:00,70.0,70.0,30.29,NNW,335,0.0,2.0,99,0.00,,,0.00,221.000000,,2013-09-08 14:11:00,
2013-09-08 11:12:00,83.0,70.0,30.29,NW,322,2.0,5.0,66,0.00,,,0.00,440.000000,,2013-09-08 15:12:00,
2013-09-08 11:45:00,83.0,65.0,30.30,SSW,200,5.0,13.0,54,0.00,,,0.00,628.000000,,2013-09-08 15:45:00,
2013-09-08 11:55:00,83.0,65.0,30.30,SSW,200,5.0,13.0,54,0.00,,,0.00,628.000000,,2013-09-08 15:55:00,
2013-09-08 12:04:00,83.0,65.0,30.30,SSW,200,5.0,13.0,54,0.00,,,0.00,628.000000,,2013-09-08 16:04:00,
2013-09-08 12:14:00,83.0,65.0,30.30,SSW,200,5.0,13.0,54,0.00,,,0.00,628.000000,,2013-09-08 16:14:00,
2013-09-08 12:44:00,86.0,65.0,30.28,ESE,109,2.0,12.0,49,0.00,,,0.00,756.000000,,2013-09-08 16:44:00,
2013-09-08 12:54:00,86.0,65.0,30.28,ESE,109,2.0,12.0,49,0.00,,,0.00,756.000000,,2013-09-08 16:54:00,
2013-09-08 13:03:00,86.0,65.0,30.28,ESE,109,2.0,12.0,49,0.00,,,0.00,756.000000,,2013-09-08 17:03:00,
2013-09-08 13:12:00,86.0,65.0,30.28,ESE,109,2.0,12.0,49,0.00,,,0.00,756.000000,,2013-09-08 17:12:00,
2013-09-08 14:43:00,88.0,67.0,30.26,NNW,344,2.0,7.0,50,-99.99,,,0.00,787.000000,,2013-09-08 18:43:00,
2013-09-08 14:52:00,88.0,67.0,30.26,NNW,344,2.0,7.0,50,-99.99,,,0.00,787.000000,,2013-09-08 18:52:00,
2013-09-08 15:02:00,88.0,67.0,30.26,NNW,344,2.0,7.0,50,-99.99,,,0.00,787.000000,,2013-09-08 19:02:00,
2013-09-08 15:12:00,88.0,67.0,30.26,NNW,344,2.0,7.0,50,-99.99,,,0.00,787.000000,,2013-09-08 19:12:00,
2013-09-08 15:42:00,85.0,65.0,30.25,NNW,337,2.0,5.0,51,0.00,,,0.00,429.000000,,2013-09-08 19:42:00,
2013-09-08 15:52:00,85.0,65.0,30.25,NNW,337,2.0,5.0,51,0.00,,,0.00,429.000000,,2013-09-08 19:52:00,
2013-09-08 16:03:00,85.0,65.0,30.25,NNW,337,2.0,5.0,51,0.00,,,0.00,429.000000,,2013-09-08 20:03:00,
2013-09-08 16:12:00,85.0,65.0,30.25,NNW,337,2.0,5.0,51,0.00,,,0.00,429.000000,,2013-09-08 20:12:00,
2013-09-08 16:42:00,84.0,71.0,30.25,NNE,14,2.0,4.0,66,0.00,,,0.00,255.000000,,2013-09-08 20:42:00,
2013-09-08 16:53:00,84.0,71.0,30.25,NNE,14,2.0,4.0,66,0.00,,,0.00,255.000000,,2013-09-08 20:53:00,
2013-09-08 17:03:00,84.0,71.0,30.25,NNE,14,2.0,4.0,66,0.00,,,0.00,255.000000,,2013-09-08 21:03:00,
2013-09-08 17:12:00,84.0,71.0,30.25,NNE,14,2.0,4.0,66,0.00,,,0.00,255.000000,,2013-09-08 21:12:00,
2013-09-08 17:44:00,79.0,69.0,30.25,North,359,1.0,4.0,72,0.00,,,0.00,299.000000,,2013-09-08 21:44:00,
2013-09-08 17:54:00,79.0,69.0,30.25,North,359,1.0,4.0,72,0.00,,,0.00,299.000000,,2013-09-08 21:54:00,
2013-09-08 18:04:00,79.0,69.0,30.25,North,359,1.0,4.0,72,0.00,,,0.00,299.000000,,2013-09-08 22:04:00,
2013-09-08 18:13:00,79.0,69.0,30.25,North,359,1.0,4.0,72,0.00,,,0.00,299.000000,,2013-09-08 22:13:00,
2013-09-08 18:44:00,77.0,71.0,30.26,North,6,1.0,2.0,81,0.00,,,0.00,144.000000,,2013-09-08 22:44:00,
2013-09-08 18:53:00,77.0,71.0,30.26,North,6,1.0,2.0,81,0.00,,,0.00,144.000000,,2013-09-08 22:53:00,
2013-09-08 19:04:00,77.0,71.0,30.26,North,6,1.0,2.0,81,0.00,,,0.00,144.000000,,2013-09-08 23:04:00,
2013-09-08 19:13:00,77.0,71.0,30.26,North,6,1.0,2.0,81,0.00,,,0.00,144.000000,,2013-09-08 23:13:00,
2013-09-08 19:53:00,73.0,69.0,30.27,NNE,25,0.0,3.0,86,0.00,,,0.00,47.000000,,2013-09-08 23:53:00,
2013-09-08 20:02:00,73.0,69.0,30.27,NNE,25,0.0,3.0,86,0.00,,,0.00,47.000000,,2013-09-09 00:02:00,
2013-09-08 20:12:00,73.0,69.0,30.27,NNE,25,0.0,3.0,86,0.00,,,0.00,47.000000,,2013-09-09 00:12:00,
2013-09-08 21:12:00,69.0,68.0,30.28,ESE,110,1.0,1.0,95,0.00,,,0.00,19.000000,,2013-09-09 01:12:00,
2013-09-08 21:42:00,68.0,67.0,30.31,SE,140,0.0,2.0,97,0.00,,,0.00,0.000000,,2013-09-09 01:42:00,
2013-09-08 21:52:00,68.0,67.0,30.31,SE,140,0.0,2.0,97,0.00,,,0.00,0.000000,,2013-09-09 01:52:00,
2013-09-08 22:02:00,68.0,67.0,30.31,SE,140,0.0,2.0,97,0.00,,,0.00,0.000000,,2013-09-09 02:02:00,
2013-09-08 22:11:00,68.0,67.0,30.31,SE,140,0.0,2.0,97,0.00,,,0.00,0.000000,,2013-09-09 02:11:00,
2013-09-08 22:42:00,66.0,65.0,30.32,NNW,332,1.0,2.0,98,0.00,,,0.00,0.000000,,2013-09-09 02:42:00,
2013-09-08 22:53:00,66.0,65.0,30.32,NNW,332,1.0,2.0,98,0.00,,,0.00,0.000000,,2013-09-09 02:53:00,
2013-09-08 23:03:00,66.0,65.0,30.32,NNW,332,1.0,2.0,98,0.00,,,0.00,0.000000,,2013-09-09 03:03:00,
2013-09-08 23:12:00,66.0,65.0,30.32,NNW,332,1.0,2.0,98,0.00,,,0.00,0.000000,,2013-09-09 03:12:00,
2013-09-08 23:44:00,65.0,64.0,30.34,SE,124,1.0,3.0,98,0.00,,,0.00,0.000000,,2013-09-09 03:44:00,
2013-09-08 23:55:00,65.0,64.0,30.34,SE,124,1.0,3.0,98,0.00,,,0.00,0.000000,,2013-09-09 03:55:00,